Theta_e
303 303 305 307 307 293 300 301 295 298 303 299 297 299 299 298 294 290 301 298 299 303 303 305 307 308 308 325 328 329 329 331 332 332 333 333 334 335 337 339 340 341 342 343 342 343 345 345 346 346 346 348 350 351 352 351 352 352 351 354 351 349 349
302 305 305 305 308 306 301 295 298 305 306 303 300 290 294 292 288 292 298 295 293 295 291 304 304 305 307 324 328 329 330 331 331 331 332 333 334 335 338 340 341 341 343 343 343 344 345 346 346 347 347 349 351 353 353 352 353 352 351 353 352 350 348
301 303 303 303 306 309 302 301 308 298 292 291 297 297 288 287 288 290 294 297 297 295 297 301 301 303 306 314 327 328 329 330 330 331 332 334 335 337 339 340 340 341 342 344 344 344 346 347 347 347 349 349 352 354 355 354 353 354 353 354 354 352 350
299 299 299 293 299 305 308 307 303 307 301 297 293 295 296 296 289 293 291 296 292 303 300 302 302 304 307 310 325 326 329 329 331 332 333 333 334 335 338 339 340 341 342 343 344 344 346 347 348 348 349 350 351 354 356 355 356 355 354 353 355 352 351
299 291 298 295 296 294 297 299 298 300 301 304 300 302 296 292 292 290 290 290 297 302 307 304 304 306 309 310 323 326 329 331 332 332 333 334 334 334 337 339 340 342 342 343 345 346 346 349 350 349 349 350 350 353 356 357 356 355 354 354 354 354 352
291 294 299 300 299 299 298 297 296 298 296 294 291 290 301 298 292 288 291 290 299 306 312 312 307 310 311 312 323 325 327 331 331 332 334 334 333 334 337 338 340 343 344 345 345 346 347 347 349 349 350 350 350 351 355 357 358 357 356 355 354 355 354
292 296 299 302 302 302 301 300 298 302 300 299 294 286 292 298 297 300 297 293 296 307 311 311 312 311 312 313 315 326 327 330 331 333 334 334 334 335 337 339 341 344 346 346 345 345 345 349 349 349 350 350 350 351 354 357 357 357 357 357 356 356 355
297 299 300 301 301 300 298 301 303 302 299 299 296 296 298 296 298 294 294 293 295 306 310 312 314 312 314 315 316 329 329 331 332 333 334 334 334 334 337 339 342 344 346 347 346 345 346 347 348 349 350 351 352 352 353 356 356 358 358 358 357 356 355
289 291 294 294 300 301 297 297 301 302 302 302 301 301 300 296 298 295 294 289 294 307 317 318 313 316 313 313 326 331 329 330 332 333 333 335 335 335 336 337 339 342 343 344 344 345 345 346 347 348 349 350 351 351 353 354 357 359 359 360 358 357 356
280 281 280 285 289 293 296 298 299 300 301 300 297 293 295 288 298 298 294 296 300 308 316 316 318 320 320 322 320 323 324 327 332 333 334 334 336 335 336 337 338 340 341 342 343 345 346 346 346 346 348 349 349 350 351 353 355 358 360 361 359 357 356
283 286 289 294 297 294 291 294 296 297 300 301 299 299 294 290 295 294 297 300 302 308 313 314 318 320 320 321 322 322 325 325 330 331 333 334 335 335 336 336 337 339 340 341 342 343 345 346 346 346 347 348 348 349 350 352 354 357 360 360 359 358 357
289 290 290 293 295 292 293 292 293 296 297 298 296 294 292 297 293 288 301 302 299 305 312 314 317 320 321 321 321 324 326 328 330 330 332 341 334 335 335 336 336 336 339 340 341 342 343 345 346 346 347 348 348 348 348 351 353 356 360 360 359 358 357
291 292 292 294 293 293 293 293 293 293 296 297 294 295 299 300 293 290 297 300 301 305 313 316 317 320 320 320 322 325 327 331 332 332 332 333 334 335 336 337 339 341 343 342 341 342 343 344 345 345 346 347 348 349 349 350 352 354 359 360 359 359 358
291 291 292 293 291 292 292 293 293 294 295 295 296 296 298 298 297 299 299 302 303 312 316 317 318 321 321 322 326 327 328 329 331 331 332 334 336 336 337 337 340 344 342 343 349 347 346 345 345 345 346 347 348 349 350 351 352 355 359 361 360 359 358
288 291 293 293 292 292 291 293 293 294 295 296 296 297 299 301 299 300 302 300 303 316 320 321 321 321 322 325 324 325 325 326 327 328 330 331 333 336 338 341 341 341 346 345 346 345 343 343 345 346 345 346 349 351 352 352 354 356 360 360 360 359 359
286 291 291 292 293 292 291 291 292 293 294 293 296 296 298 298 297 299 299 299 305 312 318 319 321 320 320 319 319 320 322 323 325 325 326 328 331 333 334 337 339 340 341 345 346 346 349 349 348 347 346 347 346 345 349 355 356 358 360 360 360 360 360
285 290 291 291 291 290 287 288 291 294 295 296 297 299 300 300 300 297 297 300 310 317 315 316 318 319 317 316 316 317 319 321 323 323 324 326 329 330 333 334 337 339 340 341 344 349 346 348 348 347 347 348 346 348 345 344 354 358 359 360 360 360 361
285 289 290 291 286 280 282 294 297 296 294 295 295 297 299 300 302 302 307 311 313 315 316 313 316 315 315 314 316 319 318 318 319 322 323 324 326 329 331 336 336 338 340 341 343 347 353 354 347 347 350 347 347 349 349 350 349 355 358 359 359 360 360
284 288 289 284 278 281 293 297 298 298 300 301 301 298 300 308 310 311 310 311 313 316 318 318 318 317 317 320 315 316 319 320 319 319 321 322 325 327 329 331 332 335 338 340 341 342 344 348 353 353 346 347 348 349 351 350 352 355 357 358 359 360 360
289 285 284 274 279 292 295 296 297 303 307 306 306 304 306 310 309 309 309 311 312 314 316 318 317 318 317 317 316 315 317 319 319 319 319 321 323 325 328 328 330 332 335 336 337 339 344 346 348 352 355 359 352 349 352 353 355 357 357 357 358 359 359
282 284 283 283 291 290 292 293 300 302 300 302 302 296 302 309 309 310 308 309 310 311 313 315 318 319 318 314 313 315 316 317 320 320 320 321 321 323 327 329 329 331 333 334 337 340 342 345 347 350 353 355 355 355 353 354 356 357 356 356 357 359 359
289 282 281 283 280 279 286 299 304 308 306 306 306 303 299 308 310 310 310 308 308 309 311 313 313 317 313 307 308 313 315 317 317 319 320 321 321 322 324 327 328 329 331 335 337 339 340 343 346 349 351 353 355 355 355 355 355 356 356 355 358 359 359
287 285 281 280 277 283 295 298 302 303 305 306 304 299 294 306 308 309 310 308 308 308 308 310 313 309 304 304 307 312 315 316 316 317 319 320 320 322 323 325 325 327 330 333 336 337 338 339 342 346 348 350 352 354 356 355 355 354 355 355 357 359 360
287 284 282 280 286 283 295 300 301 302 304 306 299 287 288 302 308 309 309 307 306 308 309 310 309 306 302 303 307 313 315 317 316 316 317 319 319 321 323 325 327 327 330 329 331 332 334 336 340 343 346 350 353 355 357 357 355 353 355 356 357 360 361
287 287 284 286 288 298 300 301 302 305 308 302 287 283 296 305 308 309 309 307 307 308 308 308 304 307 312 311 313 315 316 315 315 317 318 319 320 320 321 323 328 325 326 328 329 331 333 337 339 342 345 347 351 355 357 357 355 354 355 357 357 360 362
284 285 283 284 288 299 302 301 303 306 301 288 285 299 305 306 308 308 309 308 307 308 308 307 307 309 312 315 313 314 314 314 314 316 316 317 320 321 323 324 325 325 326 327 328 330 333 336 339 342 345 348 351 354 357 357 357 357 355 355 357 359 362
288 287 284 282 279 294 300 300 300 303 293 295 302 305 307 309 308 308 308 309 308 309 307 310 309 309 311 312 312 314 314 314 314 314 315 316 317 318 319 321 324 326 325 325 327 329 332 334 337 339 342 344 349 354 357 359 360 357 355 355 356 359 362
283 283 282 282 293 294 301 299 293 299 303 306 306 305 303 308 309 309 308 309 310 310 309 308 309 309 310 310 311 314 315 315 315 315 315 316 317 319 320 322 324 325 324 326 327 328 330 332 334 336 338 342 348 353 357 362 361 358 356 357 357 358 361
288 286 289 295 297 299 301 302 301 304 306 309 310 308 306 305 306 309 308 308 310 310 309 308 309 309 310 310 311 311 314 315 315 314 314 315 316 318 319 320 322 324 324 324 326 327 328 330 332 335 339 343 348 351 357 361 361 359 357 357 356 357 360
298 297 297 299 298 299 298 301 303 302 303 305 310 309 306 306 307 308 307 308 309 310 311 308 308 309 310 310 310 312 313 314 316 316 315 315 317 318 320 319 321 322 323 324 325 326 327 329 331 334 338 343 346 351 357 358 362 362 358 357 356 356 359
289 285 299 296 296 296 298 299 301 303 303 304 306 307 307 307 307 308 309 309 309 310 310 309 308 308 310 309 310 313 312 315 315 315 314 315 316 318 318 319 322 320 321 322 324 326 326 328 331 333 336 339 343 348 354 357 362 363 358 358 356 357 359
289 289 294 296 296 297 299 300 298 298 300 302 303 304 305 307 309 309 309 309 309 309 308 309 308 308 309 309 310 311 311 314 315 315 315 315 316 316 318 320 321 321 321 322 323 325 326 327 329 332 334 335 338 345 351 356 358 362 359 358 357 358 359
292 295 296 295 296 296 298 298 299 299 300 301 301 303 304 305 306 307 309 310 309 309 308 309 309 309 309 311 310 311 311 312 314 315 316 316 315 315 317 318 321 320 322 322 324 325 325 326 328 330 331 333 336 339 342 348 356 361 360 357 358 359 360
287 288 291 294 288 288 293 296 298 299 301 302 302 303 303 304 304 306 307 308 308 308 308 308 309 308 309 311 311 310 311 312 314 315 316 316 314 315 318 317 318 320 322 323 324 325 324 325 327 329 330 331 334 336 339 343 355 362 363 362 359 359 361
287 293 295 297 295 294 295 297 299 301 302 302 303 304 304 305 306 306 307 306 307 307 309 310 310 309 309 310 311 311 312 313 314 316 314 315 313 316 318 316 317 317 320 324 325 324 324 324 326 328 328 330 332 334 337 340 348 353 357 361 361 360 360
296 298 298 299 297 294 297 300 300 300 302 303 303 304 305 306 306 307 307 307 307 307 308 309 311 310 310 311 311 310 312 313 314 314 315 316 316 318 317 317 319 317 320 322 324 324 322 323 324 326 327 329 330 333 336 337 345 352 355 354 354 358 360
295 300 301 301 300 300 302 301 301 301 303 303 303 304 306 306 308 309 308 308 308 308 307 308 309 311 311 311 312 311 311 313 315 316 319 320 319 319 317 319 319 318 320 323 324 322 322 323 324 324 325 327 329 332 334 336 347 350 348 352 351 349 345
Wind_Speed
11 12 16 7 4 6 1 4 7 8 3 4 2 5 10 8 6 5 3 5 5 3 6 8 9 9 7 19 21 20 19 17 17 18 18 19 18 16 15 15 14 17 17 15 14 17 17 19 18 19 19 19 20 19 20 20 19 17 17 17 17 16 15
16 17 18 20 10 8 4 4 4 4 2 3 1 3 1 3 2 2 5 3 4 8 4 10 13 7 13 15 22 23 19 20 20 19 19 19 18 18 18 17 16 17 18 19 17 16 19 20 21 19 20 18 18 18 20 21 19 19 18 17 16 15 15
13 18 16 15 10 13 10 11 3 3 3 7 3 1 3 3 4 2 6 6 5 10 5 11 16 12 12 13 23 22 22 21 22 19 22 20 20 19 16 15 16 16 16 18 17 16 19 20 20 18 18 18 16 16 18 20 21 21 20 16 15 14 15
14 14 6 5 11 3 16 7 7 2 2 5 5 4 2 1 3 1 4 7 4 3 5 12 14 14 10 10 25 22 22 24 21 19 20 19 18 18 17 17 17 17 17 18 18 17 18 19 19 18 17 17 19 18 19 19 19 18 17 17 16 16 15
10 8 2 4 11 14 8 4 6 4 4 2 4 1 7 4 2 2 3 3 3 8 4 11 12 10 11 8 22 20 23 23 22 23 20 19 20 17 18 18 17 18 18 18 17 15 16 16 16 17 17 18 18 17 18 19 20 20 19 19 17 15 14
6 11 10 11 15 13 12 8 9 7 5 6 5 7 3 8 6 1 2 6 6 8 5 2 6 14 16 11 22 24 25 24 25 21 21 21 18 17 19 19 18 17 17 17 16 14 12 14 16 18 18 17 17 18 18 19 19 19 20 19 17 16 15
11 16 23 19 14 13 13 12 9 7 8 4 4 5 4 4 6 5 5 3 10 9 5 12 13 10 9 11 11 17 18 24 23 20 21 19 19 18 18 19 18 17 17 17 18 18 16 14 17 19 18 17 17 17 17 17 19 20 20 19 17 15 15
13 16 16 17 14 9 9 5 9 11 10 10 7 6 9 8 2 7 4 5 8 12 10 10 16 9 13 14 9 24 19 17 16 17 19 17 16 17 16 16 15 15 15 15 15 16 16 14 13 16 17 17 16 16 17 17 20 20 19 17 17 16 16
8 11 10 9 8 12 9 11 10 11 14 15 7 3 8 3 8 13 1 7 7 5 13 18 14 17 3 5 16 21 21 17 16 19 17 17 17 15 15 15 15 15 15 16 16 17 17 17 15 15 15 15 16 16 16 17 17 18 17 16 17 17 17
5 4 3 5 10 13 10 9 15 15 12 15 11 6 5 2 6 9 3 5 5 9 14 21 21 22 23 21 16 12 10 3 13 18 17 16 15 14 16 17 14 16 17 17 16 16 17 17 16 15 14 15 15 15 16 14 13 15 17 16 17 16 16
8 8 10 11 11 12 11 17 16 15 12 9 9 1 1 4 8 7 6 1 14 8 13 16 17 18 20 19 18 18 14 9 11 14 18 17 15 16 17 17 16 13 13 16 16 17 17 17 16 15 15 16 15 14 14 14 14 14 14 16 16 16 17
12 13 16 17 17 16 16 16 16 15 12 9 11 5 3 7 8 8 2 11 14 15 10 14 15 15 15 16 17 16 16 20 23 5 14 11 6 3 3 5 7 11 16 18 17 17 17 15 15 15 15 16 16 16 16 16 16 15 13 15 15 16 16
12 12 16 15 14 13 14 16 13 15 13 8 10 8 3 3 2 7 12 10 11 14 11 9 11 12 13 15 14 13 13 20 21 22 21 18 15 19 18 14 13 9 3 3 10 14 16 16 15 16 15 14 13 13 14 15 16 17 15 14 15 16 16
12 13 15 14 13 14 15 14 13 14 14 12 13 14 6 5 8 9 12 7 14 9 9 5 8 8 11 10 11 15 19 18 17 19 20 18 17 16 14 14 14 10 8 6 3 2 1 5 10 12 11 11 13 14 16 15 16 17 15 15 16 16 16
10 13 12 12 13 12 14 14 13 12 11 10 14 16 7 6 9 9 7 11 12 1 5 4 3 10 14 15 17 17 16 17 18 18 19 19 18 16 15 15 15 14 8 7 7 5 5 9 11 10 9 9 6 10 13 14 15 15 15 15 15 16 16
8 10 12 12 12 13 14 13 12 10 11 13 10 4 4 5 7 8 10 5 6 9 16 10 8 11 15 16 16 16 14 16 17 17 17 16 16 17 16 15 14 13 16 14 8 6 5 3 5 6 7 7 5 9 12 12 15 13 15 14 15 15 15
7 10 13 15 13 12 11 8 9 9 11 12 12 8 8 11 10 8 4 7 5 6 13 15 11 11 16 17 15 14 15 15 15 16 16 16 15 14 14 14 12 12 13 13 12 6 4 4 3 8 9 8 7 8 6 14 15 12 14 14 14 14 14
7 10 13 11 8 6 6 5 6 5 9 9 11 6 8 10 6 4 8 2 5 11 12 15 14 14 13 13 14 14 13 12 13 14 14 15 15 14 14 12 11 11 12 13 13 12 9 2 3 2 3 7 7 10 11 11 14 16 12 13 14 15 15
6 9 10 7 5 7 7 11 10 12 13 11 12 10 10 10 15 15 13 13 10 7 6 6 13 7 11 15 16 17 16 14 13 13 13 14 14 14 13 12 12 10 10 9 12 13 12 11 8 1 6 5 5 7 10 13 15 17 13 12 13 14 15
2 6 5 3 6 5 12 13 13 10 6 10 8 8 12 11 12 10 9 8 8 8 7 7 12 4 8 11 15 16 15 14 13 14 13 14 14 15 13 13 13 12 12 11 13 13 10 11 10 8 3 2 6 11 13 15 16 16 14 13 13 15 15
2 3 6 8 7 13 13 9 4 6 5 4 4 2 5 11 11 11 8 8 10 11 9 6 6 11 4 11 11 16 14 13 12 13 13 14 13 13 13 13 13 14 12 13 13 11 11 10 10 9 10 9 7 4 6 15 17 15 15 15 13 15 17
3 1 6 6 4 6 6 3 8 9 12 8 7 3 1 8 10 10 8 7 10 11 12 11 12 7 3 10 10 12 12 12 12 11 13 13 12 12 13 13 14 14 14 13 13 12 13 11 10 10 11 11 10 10 8 6 8 13 15 16 14 14 16
2 2 3 5 4 4 5 12 15 17 18 13 10 4 1 4 8 10 7 9 10 10 11 12 10 9 6 5 6 8 11 10 11 12 10 12 13 12 12 13 15 16 14 14 13 13 13 14 14 14 14 12 11 11 11 9 8 11 14 16 15 15 16
4 3 3 5 3 2 8 11 13 15 14 15 7 3 1 5 8 9 9 8 10 9 10 10 9 9 5 5 4 8 9 9 10 11 14 15 16 13 13 11 11 13 14 15 14 13 13 13 14 15 15 13 11 10 12 11 10 11 14 16 16 12 11
6 8 6 3 7 1 3 11 15 14 13 6 1 3 4 6 8 7 6 7 8 8 9 8 6 5 3 6 6 6 9 9 10 9 10 11 12 14 14 13 12 10 11 11 13 13 11 12 13 13 13 13 13 12 12 12 13 13 12 13 12 10 11
4 3 4 7 2 2 6 11 11 9 7 3 2 2 4 7 8 7 6 5 6 6 7 6 6 7 7 7 10 10 11 8 8 8 10 10 11 11 11 14 13 12 11 11 12 14 13 13 13 13 12 13 14 13 12 13 14 13 11 10 11 11 12
1 3 7 4 6 1 8 13 9 6 4 3 4 9 9 7 6 5 6 5 5 5 4 6 7 10 8 8 8 6 10 8 9 10 10 11 13 14 14 14 14 15 13 13 12 13 13 15 14 14 15 16 16 15 14 15 14 13 10 9 12 13 12
3 1 3 2 0 6 9 7 5 4 2 4 6 5 9 8 6 4 2 4 5 7 6 7 8 9 9 5 6 3 6 6 9 9 9 9 11 12 13 13 14 16 14 14 14 14 14 14 13 13 13 15 15 16 17 15 14 12 10 10 11 13 13
1 3 4 7 11 9 8 8 8 6 4 5 6 5 7 9 7 3 4 3 3 4 5 7 7 7 7 11 8 4 5 5 8 9 7 9 10 11 12 12 14 13 15 16 16 15 15 16 15 14 13 13 17 17 17 15 16 13 11 10 12 13 14
4 9 13 10 4 8 11 10 8 11 12 8 3 4 5 7 8 5 5 5 4 1 2 4 6 7 8 8 9 3 5 3 4 4 7 8 8 10 11 12 14 13 14 15 16 17 17 17 17 15 14 14 16 17 16 17 18 13 11 11 13 14 14
3 3 2 6 9 11 12 12 9 7 10 10 9 9 7 9 10 10 6 4 6 5 2 4 4 6 7 8 7 4 4 2 3 4 6 7 9 10 10 11 13 12 13 14 16 18 18 17 15 16 17 17 16 16 16 16 17 12 10 12 13 13 14
4 6 9 7 11 11 10 6 8 11 12 14 14 13 13 12 12 12 8 6 8 7 6 5 4 4 6 6 4 5 4 3 1 3 4 8 9 9 11 11 13 12 13 14 15 16 15 16 16 16 16 17 18 18 17 15 16 12 10 11 13 14 14
6 11 5 13 17 11 5 9 12 11 11 13 16 17 16 16 17 15 12 10 8 7 7 6 4 5 4 3 4 6 5 4 2 2 4 3 5 9 11 12 13 12 11 13 14 15 15 15 16 15 17 16 17 19 17 17 14 13 9 11 13 13 13
5 5 7 11 9 10 13 15 13 14 15 15 16 16 15 15 15 15 15 12 9 8 8 8 7 7 3 2 3 6 7 4 3 2 3 2 3 5 5 8 10 11 12 13 14 16 14 15 15 16 16 16 17 17 16 16 15 11 11 6 8 11 11
5 8 9 7 8 11 12 15 17 15 13 14 15 14 14 14 13 14 15 15 11 8 7 5 6 8 7 3 3 6 6 4 4 1 4 4 3 3 6 8 11 13 13 13 14 16 15 15 16 16 16 16 17 17 17 16 14 11 9 7 5 6 8
7 6 5 6 7 11 12 14 15 14 11 11 15 15 15 16 14 14 15 15 12 8 6 6 5 8 8 4 3 6 7 9 5 3 3 3 0 2 5 7 9 13 14 14 14 14 15 14 16 16 17 17 17 17 17 17 15 9 7 5 5 4 3
4 4 5 6 7 10 9 11 12 12 12 13 14 15 15 15 16 14 14 13 10 9 9 8 6 6 7 5 2 3 4 8 6 6 4 2 2 3 4 6 9 11 11 11 10 13 13 14 15 16 16 16 17 17 16 16 15 9 7 6 4 2 4
Wind_Direction
311 349 338 258 209 250 212 225 217 217 212 235 277 295 280 292 304 263 244 225 242 201 239 249 247 245 256 161 169 174 172 171 172 178 183 187 185 187 185 183 179 178 181 183 179 177 177 179 179 179 180 179 178 176 178 181 185 185 187 188 188 187 186
327 335 337 325 212 195 272 275 255 191 223 312 182 231 271 247 195 250 250 245 225 166 255 226 250 228 227 161 167 172 169 170 176 180 185 184 185 188 187 187 184 179 180 184 184 180 181 182 182 180 180 179 178 177 177 179 182 184 189 189 190 189 187
331 336 328 328 328 178 218 235 315 322 122 224 272 359 252 278 270 267 271 278 257 176 224 184 224 228 224 171 171 168 169 173 180 182 185 186 185 183 181 180 181 181 180 183 183 183 181 182 182 181 178 178 176 177 178 180 183 186 186 188 190 192 192
340 321 325 298 342 303 204 255 269 268 283 237 220 201 290 29 280 275 273 254 254 199 206 185 205 216 223 172 173 170 173 176 177 184 185 185 180 180 182 181 182 183 184 184 185 185 180 178 181 183 179 179 180 177 176 181 183 183 184 188 188 192 194
338 290 322 345 24 343 326 274 272 291 272 9 312 212 218 195 211 215 284 298 282 263 228 191 196 195 214 189 173 172 176 174 178 182 182 182 181 180 180 181 181 183 184 185 184 182 182 178 179 182 182 183 182 177 178 178 180 183 186 188 188 193 193
316 285 291 327 331 333 317 319 310 286 246 261 243 267 207 217 214 221 263 255 264 269 281 13 201 204 194 204 165 177 176 177 181 180 181 180 181 179 178 180 179 181 182 183 182 176 173 176 181 183 185 183 181 182 179 178 180 184 187 188 190 189 192
297 294 298 298 311 298 286 297 285 326 297 253 246 260 283 245 210 213 245 319 281 267 313 319 305 210 197 197 144 173 178 176 179 179 178 177 178 174 177 177 178 179 178 181 182 178 179 177 180 183 183 182 181 182 179 181 182 187 187 188 188 187 191
293 290 286 297 289 278 297 292 351 357 352 20 8 358 353 323 216 189 180 229 259 281 315 307 300 183 164 185 157 163 172 172 171 169 171 179 180 183 177 175 175 175 175 177 175 178 180 181 176 178 181 181 176 176 180 182 187 186 186 186 186 187 190
321 309 316 293 17 6 4 335 325 357 351 348 347 23 26 352 26 2 247 194 255 328 1 1 350 17 357 184 147 160 163 170 171 172 180 182 184 179 176 179 177 172 176 179 180 181 183 183 182 181 180 179 178 179 178 181 185 185 186 185 187 189 191
306 303 350 10 339 335 324 306 327 331 344 347 4 12 357 35 335 356 360 314 305 341 13 20 9 21 23 26 54 51 31 330 180 171 179 183 180 177 180 181 179 178 180 180 180 185 188 186 183 184 184 184 186 184 185 179 176 183 186 186 187 188 190
262 280 287 286 309 303 306 318 317 325 333 353 329 301 24 1 317 319 271 220 324 336 15 23 10 32 33 24 32 32 49 65 283 212 179 175 177 183 184 183 185 181 176 181 183 186 189 189 187 187 187 188 190 188 184 185 188 189 187 186 186 188 190
263 273 276 288 289 290 299 305 306 315 314 340 315 311 354 337 353 307 312 2 335 315 0 23 15 25 31 26 26 25 28 29 30 86 169 162 154 151 179 187 180 184 184 184 184 185 187 190 189 191 191 191 191 190 189 190 191 193 193 188 186 188 189
277 273 280 283 285 284 287 288 298 303 307 318 299 301 343 330 262 271 303 318 315 308 323 32 26 24 30 30 23 36 32 40 46 53 67 61 54 50 40 37 47 41 19 245 204 189 187 187 188 191 190 193 193 194 196 194 194 197 195 189 187 188 191
285 282 276 277 288 293 286 287 298 304 310 317 307 296 298 296 281 288 292 314 318 273 277 357 27 25 37 29 37 35 30 38 44 50 52 56 60 64 58 43 22 21 35 37 67 119 229 203 195 191 189 190 193 194 198 198 199 197 192 190 187 189 193
304 309 298 284 276 278 284 284 281 281 283 288 283 276 273 296 285 287 328 348 312 325 307 270 354 39 41 37 32 32 34 36 35 36 43 44 41 42 47 49 34 355 10 45 38 48 79 97 83 61 40 15 325 234 207 205 203 199 194 188 189 190 194
298 291 299 292 289 280 277 276 271 272 282 275 270 295 328 300 291 313 349 345 343 317 339 317 34 42 52 51 30 25 32 28 33 36 35 38 39 33 28 32 31 13 1 12 34 45 27 45 82 117 133 126 89 357 316 243 206 198 192 190 190 192 191
290 297 301 301 303 300 276 272 277 265 253 268 277 277 305 293 298 318 319 26 333 343 359 335 20 42 59 54 37 26 23 25 30 31 26 26 30 31 30 19 22 11 359 356 358 19 63 34 106 140 134 132 148 166 194 307 294 210 194 190 189 189 188
295 295 296 307 307 292 268 289 305 306 299 273 262 254 263 270 288 358 31 158 38 32 19 336 351 36 39 49 56 49 34 21 22 29 25 22 20 21 23 21 5 7 359 353 336 7 1 7 162 137 144 164 182 174 168 194 253 251 200 193 190 189 188
290 304 296 297 273 267 283 293 308 334 324 350 332 269 222 1 33 38 27 13 13 47 62 337 301 40 58 42 41 46 37 27 20 19 23 20 12 12 10 8 359 9 356 345 329 348 355 351 354 153 185 192 193 204 195 207 217 232 209 195 190 189 190
323 295 271 275 245 277 311 315 318 338 9 7 358 19 61 53 42 39 44 358 7 15 28 347 323 334 64 61 42 36 37 32 24 12 13 13 9 6 2 1 351 352 354 345 337 336 334 339 338 335 342 200 211 218 219 213 219 220 208 198 192 188 191
205 261 278 268 311 310 306 317 353 359 349 9 44 324 51 26 35 30 40 32 7 6 355 3 313 316 50 42 35 21 33 28 29 15 9 6 8 358 353 353 350 350 344 339 334 329 330 330 328 324 321 317 301 268 224 226 212 208 203 202 195 191 191
177 266 287 285 295 272 278 288 349 352 338 338 346 304 189 13 18 25 34 28 19 3 352 0 351 334 45 19 4 0 20 27 23 20 9 3 7 359 349 343 350 343 339 336 335 333 330 325 326 329 325 322 313 304 283 267 233 214 202 205 199 192 194
48 293 263 266 263 249 42 346 344 340 329 335 321 319 218 1 344 16 20 32 20 11 3 354 8 39 49 10 350 351 6 22 23 12 11 0 2 358 352 346 349 339 339 337 335 336 333 332 331 324 318 311 307 302 297 278 255 230 213 207 202 195 196
200 225 234 253 263 346 318 328 335 320 319 323 340 340 233 339 348 13 6 30 21 8 9 3 31 37 28 348 326 4 3 18 26 14 6 358 358 351 347 346 345 338 334 335 339 336 332 328 323 320 319 314 303 293 291 287 266 244 224 214 207 196 184
250 249 248 266 263 16 353 344 327 332 326 325 39 270 348 322 327 11 3 34 22 8 9 10 26 353 359 348 325 30 13 18 15 15 19 2 348 345 342 342 340 342 336 332 331 327 327 322 320 316 315 311 305 301 293 286 271 255 237 219 206 187 180
265 255 258 253 281 137 290 359 341 349 340 309 301 2 241 275 314 357 356 23 26 352 27 359 354 332 348 6 354 19 15 10 13 7 9 0 348 341 340 340 344 342 337 333 330 333 331 329 326 322 316 307 301 297 292 283 273 260 247 218 202 190 182
355 273 261 255 253 139 348 338 340 45 31 285 305 307 301 300 315 338 343 339 34 347 14 2 337 334 347 358 347 30 5 355 16 7 4 359 347 342 342 347 346 342 340 339 340 337 334 334 331 325 321 310 304 297 288 283 278 263 242 214 200 192 185
311 259 244 226 99 303 324 345 304 330 225 248 276 308 303 305 313 328 333 330 354 5 2 351 336 326 324 338 334 2 15 353 26 2 2 356 348 340 339 341 341 343 340 338 338 338 336 332 326 322 316 307 302 300 295 294 286 263 237 210 200 193 188
271 266 290 308 315 324 347 348 318 291 256 245 257 271 289 305 302 307 305 319 335 335 349 332 322 315 321 320 315 359 358 24 29 1 359 355 345 338 337 337 342 346 344 339 337 336 340 334 328 321 316 307 303 299 298 301 290 259 230 209 197 196 192
247 270 256 270 303 2 340 322 317 312 315 318 298 293 290 289 297 305 296 289 293 268 285 298 301 300 302 307 317 6 357 9 44 3 351 352 350 341 337 343 345 345 344 341 340 339 337 335 331 325 318 315 311 305 305 304 294 254 220 206 200 197 193
350 279 72 349 360 337 329 314 309 339 350 334 330 309 302 297 294 286 273 283 295 295 221 234 257 279 292 300 311 325 354 356 40 10 2 351 350 342 339 338 338 345 352 343 339 340 336 334 332 329 325 320 314 307 304 304 301 253 217 202 201 199 193
257 273 295 338 341 328 303 316 354 335 333 329 324 316 310 308 299 286 269 269 272 271 257 213 221 250 271 280 305 314 328 319 57 41 28 357 342 344 340 334 341 342 353 346 338 337 337 338 333 327 324 321 317 315 315 312 314 287 222 203 200 197 194
278 267 294 359 329 308 292 334 325 321 317 318 311 308 307 307 304 297 286 265 259 262 278 288 261 245 238 293 321 317 317 313 333 47 88 33 349 338 341 341 339 338 345 344 339 341 339 335 331 329 326 322 321 320 320 316 310 311 264 212 201 199 192
301 329 337 339 330 321 316 316 319 316 314 310 306 301 296 294 294 296 293 288 280 282 282 288 296 294 293 299 302 305 300 306 327 38 49 66 2 328 331 336 333 330 345 348 343 341 341 336 332 332 327 320 322 320 319 318 317 319 317 269 216 201 194
288 307 316 319 300 289 288 304 313 313 313 303 297 302 300 290 282 286 291 291 286 280 287 292 296 292 275 277 318 306 314 311 333 13 26 17 1 329 338 337 341 341 341 349 345 344 342 338 334 331 326 323 322 321 320 319 316 315 315 313 271 224 202
261 259 280 291 287 293 300 305 311 308 304 307 309 307 304 296 281 275 276 278 284 289 283 274 276 291 304 315 316 319 323 313 314 325 14 12 81 336 346 335 337 342 343 350 348 343 339 336 335 331 330 327 325 323 325 320 311 303 311 311 301 290 258
254 265 277 276 278 282 285 298 300 302 310 311 308 306 306 299 285 270 264 269 270 275 279 278 275 270 269 259 291 302 306 306 307 316 342 343 341 353 339 339 348 342 339 341 342 340 334 335 335 335 329 326 326 326 322 319 318 325 335 340 327 1 49